Regional Weather Roundup
Issued by NWS

Home | Current Version | Previous Version | Graphics & Text | Print | Product List | Glossary On
Versions: 1 2 3 4 5 6 7 8 9 10 11 12 13 14 15 16 17 18 19 20 21 22 23 24 25 26 27 28 29 30 31 32 33 34 35 36 37 38 39 40 41 42 43 44 45 46 47 48 49 50
000
ASUS43 KLSX 280007
RWRMO

WEATHER SUMMARY FOR MISSOURI
NATIONAL WEATHER SERVICE SPRINGFIELD MO
600 PM CST THU NOV 27 2014

NOTE: "FAIR" INDICATES FEW OR NO CLOUDS BELOW 12,000 FEET WITH NO
       SIGNIFICANT WEATHER AND/OR OBSTRUCTIONS TO VISIBILITY.
       CURRENT SKY AND/OR WEATHER CONDITIONS ARE NOT AVAILABLE FOR
       CHILLICOTHE AND FARMINGTON.

MOZ001>031-035>038-043-044-053-054-280100-
...NORTHERN AND WESTERN MISSOURI...

CITY           SKY/WX    TMP DP  RH WIND       PRES   REMARKS
KANSAS CTY INT MOCLDY    31  21  66 SE12      30.35F WCI  22
6HR MIN TEMP:  30; 6HR MAX TEMP:  36;

KANSAS C DTWN  PTCLDY    34  23  64 E10       30.36F WCI  26
6HR MIN TEMP:  32; 6HR MAX TEMP:  38;

LEE`S SUMMIT   PTCLDY    34  21  59 SE6       30.37F WCI  29
6HR MIN TEMP:  31; 6HR MAX TEMP:  38;

ST JOSEPH      PTCLDY    30  20  66 SE6       30.37F WCI  24
6HR MIN TEMP:  26; 6HR MAX TEMP:  32;

CHILLICOTHE      N/A     28  18  66 E3        30.43F
6HR MIN TEMP:  27; 6HR MAX TEMP:  31;

KIRKSVILLE     MOCLDY    21  13  71 NE7       30.43F WCI  12
6HR MIN TEMP:  21; 6HR MAX TEMP:  28;


$$
MOZ066>068-077>081-088>096-101>105-280100-
...SOUTHWEST MISSOURI...

CITY           SKY/WX    TMP DP  RH WIND       PRES   REMARKS
SPRINGFIELD    CLEAR     34  22  61 SE5       30.37F WCI  30
6HR MIN TEMP:  33; 6HR MAX TEMP:  42;

JOPLIN         CLEAR     38  21  50 SE6       30.39F
6HR MIN TEMP:  36; 6HR MAX TEMP:  44;


$$
MOZ032>034-039>042-045>050-055>058-069>072-280100-
...CENTRAL MISSOURI...

CITY           SKY/WX    TMP DP  RH WIND       PRES   REMARKS
COLUMBIA       CLEAR     31  22  69 CALM      30.42F
6HR MIN TEMP:  30; 6HR MAX TEMP:  35;

JEFFERSON CITY CLEAR     32  23  69 CALM      30.45F
6HR MIN TEMP:  32; 6HR MAX TEMP:  36;

ROLLA          CLEAR     29  23  78 CALM      30.41F
6HR MIN TEMP:  29; 6HR MAX TEMP:  34;

SEDALIA        CLEAR     31  24  75 E5        30.41F WCI  26
6HR MIN TEMP:  31; 6HR MAX TEMP:  36;

WHITEMAN AFB   MOCLDY    30  23  77 SE5       30.40F WCI  25
WARRENSBURG    CLEAR     32  23  69 E7        30.40S WCI  26
OSAGE BEACH    CLEAR     34  21  60 E5        30.41F WCI  30

$$
MOZ051-052-059>065-280100-
...EAST CENTRAL MISSOURI...

CITY           SKY/WX    TMP DP  RH WIND       PRES   REMARKS
ST LOUIS INTL  PTCLDY    29  17  61 N5        30.47R WCI  24
6HR MIN TEMP:  28; 6HR MAX TEMP:  35;

SPIRIT OF STL  CLEAR     31  19  61 N3        30.46R
6HR MIN TEMP:  30; 6HR MAX TEMP:  36;

ST CHARLES     CLEAR     26  17  68 N5        30.47R WCI  20
6HR MIN TEMP:  26; 6HR MAX TEMP:  33;


$$
MOZ072>076-082>087-097>100-106>115-280100-
...SOUTH CENTRAL AND SOUTHEAST MISSOURI...

CITY           SKY/WX    TMP DP  RH WIND       PRES   REMARKS
CAPE GIRARDEAU CLEAR     31  26  82 E6        30.47R WCI  25
6HR MIN TEMP:  31; 6HR MAX TEMP:  38;

FARMINGTON     CLEAR     32  21  64 CALM      30.45R
6HR MIN TEMP:  32; 6HR MAX TEMP:  37;

POPLAR BLUFF   CLEAR     33  25  72 CALM      30.45S
6HR MIN TEMP:  33; 6HR MAX TEMP:  43;

WEST PLAINS    CLEAR     33  21  61 CALM      30.41F
6HR MIN TEMP:  33; 6HR MAX TEMP:  44;


$$



USA.gov is the U.S. government's official web portal to all federal, state and local government web resources and services.